TimeCST,TemperatureF,Dew PointF,Humidity,Sea Level PressureIn,VisibilityMPH,Wind Direction,Wind SpeedMPH,Gust SpeedMPH,PrecipitationIn,Events,Conditions,WindDirDegrees,DateUTC
12:52 AM,33.1,21.9,64,29.94,10.0,West,18.4,-,N/A,,Clear,280,2014-01-24 06:52:00
1:52 AM,35.1,24.1,64,29.93,10.0,WNW,18.4,25.3,N/A,,Overcast,300,2014-01-24 07:52:00
2:52 AM,34.0,25.0,70,29.94,10.0,NW,15.0,27.6,N/A,,Scattered Clouds,310,2014-01-24 08:52:00
3:52 AM,34.0,26.1,73,29.94,10.0,WNW,13.8,25.3,N/A,,Partly Cloudy,300,2014-01-24 09:52:00
4:52 AM,33.1,26.1,75,29.93,10.0,WNW,17.3,24.2,N/A,,Clear,300,2014-01-24 10:52:00
5:52 AM,33.1,27.0,78,29.93,10.0,WNW,10.4,-,N/A,,Clear,290,2014-01-24 11:52:00
6:52 AM,33.1,26.1,75,29.91,10.0,West,11.5,-,N/A,,Clear,280,2014-01-24 12:52:00
7:52 AM,33.1,27.0,78,29.90,10.0,WNW,19.6,26.5,N/A,,Mostly Cloudy,290,2014-01-24 13:52:00
8:52 AM,33.1,27.0,78,29.87,10.0,WNW,16.1,-,N/A,,Overcast,290,2014-01-24 14:52:00
9:52 AM,35.1,28.0,76,29.86,10.0,WNW,15.0,24.2,N/A,,Overcast,290,2014-01-24 15:52:00
10:52 AM,37.0,30.0,76,29.81,10.0,WNW,12.7,-,N/A,,Overcast,290,2014-01-24 16:52:00
11:52 AM,37.9,30.9,76,29.78,10.0,West,11.5,-,N/A,,Overcast,270,2014-01-24 17:52:00
12:52 PM,39.9,33.1,77,29.72,10.0,West,18.4,26.5,N/A,,Overcast,280,2014-01-24 18:52:00
1:52 PM,42.1,33.1,70,29.68,10.0,WNW,16.1,28.8,N/A,,Mostly Cloudy,300,2014-01-24 19:52:00
2:33 PM,42.1,33.1,70,29.66,10.0,NW,31.1,39.1,N/A,,Overcast,320,2014-01-24 20:33:00
2:52 PM,42.1,33.1,70,29.71,10.0,NW,26.5,38.0,N/A,,Overcast,320,2014-01-24 20:52:00
3:41 PM,41.0,33.1,73,29.68,10.0,NW,31.1,44.9,N/A,,Scattered Clouds,320,2014-01-24 21:41:00
3:52 PM,41.0,33.1,73,29.73,10.0,NW,34.5,44.9,N/A,,Clear,320,2014-01-24 21:52:00
4:33 PM,39.9,33.1,77,29.71,10.0,NW,25.3,41.4,N/A,,Mostly Cloudy,320,2014-01-24 22:33:00
4:52 PM,39.0,33.1,79,29.76,10.0,NW,21.9,33.4,N/A,,Overcast,320,2014-01-24 22:52:00
5:52 PM,39.0,32.0,76,29.80,10.0,NW,26.5,40.3,N/A,,Overcast,320,2014-01-24 23:52:00
6:30 PM,37.9,30.9,76,29.78,10.0,NNW,27.6,36.8,N/A,,Overcast,330,2014-01-25 00:30:00
6:52 PM,37.9,30.9,76,29.83,10.0,NW,23.0,32.2,N/A,,Overcast,320,2014-01-25 00:52:00
7:52 PM,37.9,30.9,76,29.85,10.0,NW,19.6,28.8,N/A,,Overcast,320,2014-01-25 01:52:00
8:52 PM,37.0,30.9,79,29.86,9.0,NW,13.8,23.0,0.00,Rain,Light Rain,320,2014-01-25 02:52:00
9:12 PM,36.0,33.1,89,29.82,3.0,NNW,11.5,-,0.00,Rain,Light Rain,340,2014-01-25 03:12:00
9:39 PM,34.0,32.0,92,29.81,3.0,NNW,6.9,-,0.03,Snow,Light Snow,340,2014-01-25 03:39:00
9:52 PM,35.1,33.1,92,29.87,3.0,NNW,9.2,-,0.03,,Overcast,330,2014-01-25 03:52:00
10:52 PM,34.0,32.0,92,29.88,9.0,North,16.1,23.0,0.00,,Overcast,350,2014-01-25 04:52:00
11:04 PM,34.0,30.9,89,29.85,6.0,NNW,16.1,27.6,0.00,Snow,Light Snow,340,2014-01-25 05:04:00
11:17 PM,34.0,32.0,92,29.85,2.0,North,15.0,-,0.01,Snow,Light Snow,350,2014-01-25 05:17:00
11:21 PM,34.0,30.9,89,29.85,1.8,North,15.0,-,0.01,Snow,Light Snow,10,2014-01-25 05:21:00
11:29 PM,33.1,30.0,89,29.86,1.5,North,11.5,-,0.01,Snow,Light Snow,360,2014-01-25 05:29:00
11:35 PM,33.1,30.0,89,29.87,2.0,North,11.5,-,0.01,Snow,Light Snow,10,2014-01-25 05:35:00
11:44 PM,33.1,30.0,89,29.87,6.0,North,13.8,21.9,0.01,,Overcast,350,2014-01-25 05:44:00
11:52 PM,33.1,28.9,85,29.93,7.0,North,16.1,24.2,0.01,,Overcast,360,2014-01-25 05:52:00